Location: Dobrzeń Wielki
(50.7693°N, 17.8414°E)
Time: 17:57:19
(UTC+02:00)

ISS - Visible Passes

Search period start: 22 October 2019 00:00
Search period end: 31 October 2019 23:00
Orbit: 411 x 421 km, 51.6° (Epoch: 22 October)

Date Brightness Start Highest point End Pass type
(mag) Time Alt. Az. Time Alt. Az. Time Alt. Az.
24 Oct -1.0 06:50:43 10° S 06:53:12 19° SE 06:55:41 10° E visible
25 Oct -0.8 06:03:11 10° SSE 06:04:49 13° SE 06:06:27 10° ESE visible
26 Oct -2.3 06:49:19 10° SW 06:52:27 37° SSE 06:55:35 10° E visible
27 Oct -1.8 05:01:06 10° SSW 05:03:57 26° SE 05:06:49 10° E visible
28 Oct -1.4 04:14:38 17° SSE 04:15:29 18° SE 04:17:53 10° E visible
28 Oct -3.4 05:48:27 10° WSW 05:51:48 66° SSE 05:55:09 10° ENE visible
29 Oct -0.4 03:28:21 10° ESE 03:28:21 10° ESE 03:28:30 10° ESE visible
29 Oct -3.0 05:01:15 21° SW 05:03:12 49° SSE 05:06:29 10° E visible
30 Oct -2.4 04:14:50 34° SE 04:14:50 34° SE 04:17:45 10° E visible
30 Oct -3.8 05:47:50 10° W 05:51:12 85° NNW 05:54:36 10° E visible
31 Oct -0.5 03:28:20 13° E 03:28:20 13° E 03:28:55 10° E visible
31 Oct -3.8 05:01:14 35° WSW 05:02:32 81° SSE 05:05:55 10° ENE visible
